Location: PSU-Greenbush Astrophysical Observatory
(37.5140°N, 94.9880°W)
Time: 15:08:49
(UTC-05:00)

CUTE 1.7 + AOD 2 - Pass Details

Date: 25 February 2020
Orbit: 593 x 612 km, 97.6° (Epoch: 09 April)

Event Time Altitude Azimuth Distance (km) Brightness Sun altitude
Rises 05:34:20 0° 12° (NNE) 2,842 ? -17.2°
Reaches altitude 10° 05:36:31 10° 13° (NNE) 1,935 ? -16.8°
Maximum altitude 05:40:43 87° 104° (ESE) 599 ? -15.9°
Drops below altitude 10° 05:44:53 10° 192° (SSW) 1,918 ? -15.1°
Sets 05:47:02 0° 193° (SSW) 2,815 ? -14.7°
